Regional Weather Roundup
Issued by NWS Huntsville, AL

Home | Current Version | Previous Version | Text Only | Print | Product List | Glossary On
Versions: 1 2 3 4 5 6 7 8 9 10 11 12 13 14 15 16 17 18 19 20 21 22 23 24 25 26 27
000
ASUS44 KHUN 281610
RWRHUN

WEATHER ROUNDUP FOR THE TENNESSEE VALLEY
NATIONAL WEATHER SERVICE HUNTSVILLE AL
1000 AM CST TUE FEB 28 2017

ALZ001>004-281700-
NORTHWEST ALABAMA

CITY           SKY/WX    TMP DP  RH WIND       PRES   REMARKS
COURTLAND HCN    N/A     61 N/A N/A S5          N/A
RUSSELLVILLE     N/A     59 N/A N/A MISG        N/A
SHOALS AIRPORT   N/A    N/A N/A N/A MISG      30.13S
SHOALS TVA RES   N/A     61 N/A N/A MISG        N/A
$$

ALZ005>007-016-281700-
NORTH CENTRAL ALABAMA

CITY           SKY/WX    TMP DP  RH WIND       PRES   REMARKS
CULLMAN AG STN   N/A     59 N/A N/A S3          N/A
DECATUR AP     LGT RAIN  59  59 100 SE6       30.15S FOG
HUNTSVILLE AP  HVY RAIN  61  59  94 SE8       30.15S FOG
MERIDIANVILLE  TSTM      55  54  94 SE3       30.17R
REDSTONE ARSN  LGT RAIN  57  57 100 SE3       30.16R FOG
VINEMONT AP    TSTM      58  57  96 S7        30.17F
$$

ALZ008>010-281700-
NORTHEAST ALABAMA

CITY           SKY/WX    TMP DP  RH WIND       PRES   REMARKS
ALBERTVILLE    CLOUDY    54  54 100 SE7       30.16S FOG
FORT PAYNE     CLOUDY    54  50  87 SE9G20    30.20R
SCOTTSBORO AP  CLOUDY    57  57 100 SW6       30.20R THUNDER
SCOTTSBORO HCN   N/A     59 N/A N/A MISG        N/A
VALLEY HEAD      N/A     55 N/A N/A MISG        N/A
$$

TNZ076-096-097-281700-
SOUTHEASTERN MIDDLE TENNESSEE

CITY           SKY/WX    TMP DP  RH WIND       PRES   REMARKS
TULLAHOMA      PTSUNNY   55  55 100 S9        30.16S
WINCHESTER     CLOUDY    55  55 100 SE8       30.20R
$$

...SURROUNDING SITES...

CITY           SKY/WX    TMP DP  RH WIND       PRES   REMARKS
ATLANTA        CLOUDY    64  56  75 SE10      30.27S
ANNISTON       PTSUNNY   64  57  78 E8        30.21F
BIRMINGHAM     CLOUDY    63  61  93 S6        30.19S
CHATTANOOGA    CLOUDY    56  51  84 SW7       30.21F
CORINTH        CLOUDY    64  61  88 S13       30.07R
DALTON         CLOUDY    61  54  77 S6        30.22S
GADSDEN        CLOUDY    58  55  90 E7        30.19F
GOLDEN TRNGL   CLOUDY    63  59  88 S14       30.08R FOG
HALEYVILLE     LGT RAIN  59  57  94 S6        30.17R
JACKSON TN     LGT RAIN  64  62  93 S12G21    30.03S
MEMPHIS        CLOUDY    67  65  93 S15G22    30.00F
NASHVILLE      LGT RAIN  61  58  90 SW10G22   30.09R
OXFORD MS      CLOUDY    63  63 100 S12G17    30.08S
ROME           CLOUDY    59  52  77 S8        30.22F
SAVANNAH       CLOUDY    63  61  94 S9        30.07S
TUPELO         CLOUDY    62  60  93 S12       30.10S
TUSCALOOSA     CLOUDY    67  64  90 S14G21    30.16R
$$

...GULF COAST WEATHER...

CITY           SKY/WX    TMP DP  RH WIND       PRES   REMARKS
GULFPORT       PTSUNNY   75  70  84 S13       30.18R
PASCAGOULA     CLOUDY    75  66  73 VRB7      30.19S
MOBILE         CLOUDY    72  67  84 S13       30.21S
GULF SHORES    CLOUDY    70  70 100 SE12G18   30.22R
PENSACOLA      PTSUNNY   73  66  78 SE15      30.22R
PANAMA CITY    PTSUNNY   75  66  73 S15       30.24F
APPALACHICOLA  SUNNY     74  68  81 SE12      30.26F
$$





USA.gov is the U.S. government's official web portal to all federal, state and local government web resources and services.